CAS-5A (FO-118) (54684 NORAD) Tracking and Keplerian Element Data

This shows tracking and keplerian element data for the satellite.

Feedback or suggestion? Click here.




ElementValue
Catalog54684
NameCAS-5A (FO-118)
Epoch Orbit10235
Epoch Day286.83794373
Epoch Year2024
RAAN75.4871
Inclination97.6154
Eccentricity0.0006296
Argument of Perigee88.4826
Mean Anonmoly271.7143
Mean Motion15.43610937
Decay Rate0.00092042
L11 54684U 22167C 24286.83794373 .00092042 00000+0 20254-2 0 9992
L22 54684 97.6154 75.4871 0006296 88.4826 271.7143 15.43610937102357



Live tracking and technical data element details for CAS-5A (FO-118) (NORAD 54684). CAS-5A (FO-118) can be tracked NOW for your location showing map with azimuth and elevation plus other details from your city location.







IsCatalogInMostPopularTable: catalog: 54684, numindb: 37
Update: records affected: 1



GetName: 54684 CAS-5A (FO-118)

Hit Count: updated at: Thu, 23 Jan 2025 18:07:09 GMT